Regional Weather Roundup
Issued by NWS

Home | Current Version | Previous Version | Graphics & Text | Print | Product List | Glossary On
Versions: 1 2 3 4 5 6 7 8 9 10 11 12 13 14 15 16 17 18 19 20 21 22 23 24 25 26 27 28 29 30 31 32 33 34 35 36 37 38 39 40 41 42 43 44 45 46 47 48 49 50
000
ASUS43 KIND 171009
RWRIN

WEATHER ROUNDUP FOR INDIANA
NATIONAL WEATHER SERVICE INDIANAPOLIS IN
600 AM EDT THU AUG 17 2017

NOTE: "FAIR" INDICATES FEW OR NO CLOUDS BELOW 12,000 FEET WITH NO
SIGNIFICANT WEATHER AND/OR OBSTRUCTIONS TO VISIBILITY.

* - STATION DOES NOT REPORT WEATHER SUCH AS PRECIPITATION OR FOG.

+ - STATION NOT QUALITY CONTROLLED BY THE NATIONAL WEATHER SERVICE.
    USE DATA WITH CAUTION...ESPECIALLY DEWPOINT AND RELATIVE
    HUMIDITY OBSERVATIONS.

INZ001>003-010>013-019-020-171100-
NORTHWEST INDIANA

CITY           SKY/WX    TMP DP  RH WIND       PRES   REMARKS
GARY /AIRPORT/ PTCLDY    75  70  83 S10       29.81S
KNOX *+        MOCLDY    72  70  94 S6        29.84S
LA PORTE +     CLOUDY    72  69  91 S7        29.84F
MICHIGAN CITY+ CLOUDY    73  70  88 S9G16     29.82S
MONTICELLO +   CLEAR     73  71  93 S6        29.85S
RENSSELAER +   PTCLDY    70  64  83 S8        29.85R

$$

LMZ046-743>745-171100-
SOUTHERN LAKE MICHIGAN

STATION/POSITION TIME  TEMP    WIND        PRES    WAVE
                       AIR SEA DIR/SP/G            HT
                 (UTC) (F)     (DEG/KT/KT) (MB)    (FT)
BURNS HARBOR     0940   74     180/ 12/ 18 1009.8S
MICHIGAN CITY    0940   74     160/ 13/ 17   N/A
5NW MICH CITY    1000   75 74  200/ 16/ 21   N/A     1

$$

INZ004-005-014>016-021>024-171100-
NORTH CENTRAL INDIANA

CITY           SKY/WX    TMP DP  RH WIND       PRES   REMARKS
LOGANSPORT +   CLOUDY    72  70  94 S7        29.88R
PERU/GRISSOM   MOCLDY    74  74 100 S9        29.86F
ROCHESTER +    CLOUDY    75  73  94 S7        29.87S
SOUTH BEND     NOT AVBL
WARSAW +       CLOUDY    72  72 100 CALM      29.87S

$$

INZ006>009-017-018-025>027-171100-
NORTHEAST INDIANA

CITY           SKY/WX    TMP DP  RH WIND       PRES   REMARKS
AUBURN +       CLOUDY    72  70  94 CALM      29.89F
FORT WAYNE     CLOUDY    73  70  90 SE3       29.89S
HUNTINGTON +   CLOUDY    72  71  96 CALM      29.89S
KENDALLVILLE + CLOUDY    71  71 100 S5        29.89S

$$

INZ028-029-035-036-043>045-051>053-171100-
WEST CENTRAL INDIANA

CITY           SKY/WX    TMP DP  RH WIND       PRES   REMARKS
GREENCASTLE +  CLOUDY    72  72 100 S5        29.90S FOG
LAFAYETTE      NOT AVBL
TERRE HAUTE    CLEAR     73  71  93 S8        29.87F

$$

INZ030>032-037>040-046>048-054>057-064-065-171100-
CENTRAL INDIANA

CITY           SKY/WX    TMP DP  RH WIND       PRES   REMARKS
CP ATTERBURY + PTCLDY    72  70  94 SE5       29.92S
FRANKFORT +    CLOUDY    74  72  92 SW3       29.89F
GREENWOOD *+   CLOUDY    74  71  90 S5        29.92S
INDIANAPOLIS   MOCLDY    74  72  93 S8        29.89F
-EAGLE CREEK   CLOUDY    75  71  87 S7        29.89F
KOKOMO +       CLOUDY    73  72  96 S7        29.89S
MARION +       CLOUDY    72  70  94 S7        29.90S FOG
MT COMFORT *+  CLOUDY    73  72  94 S3        29.92S
SHELBYVILLE    CLOUDY    75  70  84 S10       29.91S
ZIONSVILLE +   CLOUDY    73  72  96 S8        29.90F

$$

INZ033-034-041-042-049-050-058-059-171100-
EAST CENTRAL INDIANA

CITY           SKY/WX    TMP DP  RH WIND       PRES   REMARKS
MUNCIE         PTCLDY    75  71  87 S3        29.91S
RICHMOND +     PTCLDY    70  70 100 S7        29.95S FOG

$$

INZ060-061-067>069-081>083-085>088-171100-
SOUTHWEST INDIANA

CITY           SKY/WX    TMP DP  RH WIND       PRES   REMARKS
EVANSVILLE     CLEAR     76  73  91 S7        29.91S
WASHINGTON +   MOCLDY    74  72  93 MISG      29.89F

$$

INZ062-063-066-070>080-084-089>092-171100-
SOUTH CENTRAL AND SOUTHEAST INDIANA

CITY           SKY/WX    TMP DP  RH WIND       PRES   REMARKS
BEDFORD +      MOCLDY    73  70  88 S5        29.92S
BLOOMINGTON    PTCLDY    75  71  87 S6        29.91F
MADISON *+     CLEAR     72  70  94 CALM      29.97S
NORTH VERNON + CLOUDY    72  70  94 S6        29.95R
SEYMOUR +      PTCLDY    73  73 100 SE3       29.93S

$$




USA.gov is the U.S. government's official web portal to all federal, state and local government web resources and services.